Russellville, AR

1:23 AM CST on February 26, 2017 (GMT -0600)
Russellville Regional

Weather History for KRUE - January, 2012

Change the Weather History Date:

Sunday, January 22, 2012

  Actual Average (KHOT) Record (KHOT)
Temperature  
Mean Temperature 48 °F -  
Max Temperature 63 °F 51 °F 74 °F (1986)
Min Temperature 33 °F 31 °F 8 °F (1985)
Degree Days  
Heating Degree Days 17    
Moisture  
Dew Point 40 °F    
Average Humidity 91    
Maximum Humidity 100    
Minimum Humidity 41    
Precipitation  
Precipitation 0.00 in - - ()
Sea Level Pressure  
Sea Level Pressure 29.73 in    
Wind  
Wind Speed 5 mph (East)    
Max Wind Speed 17 mph    
Max Gust Speed 30 mph    
Visibility 3 miles    
Events Fog , Rain , Thunderstorm    
Averages and records for this station are not official NWS values.
T = Trace of Precipitation, MM = Missing Value Source: NWS Daily Summary

Daily Weather History Graph

Daily Weather History Graph

Search for Another Location

Airport or City:

Trip Planner

Search our weather history database for the weather conditions in past years. The results will help you decide how hot, cold, wet, or windy it might be!

Date:

Astronomy

Jan. 22, 2012 Rise Set
Actual Time 7:18 AM CST 5:29 PM CST
Civil Twilight 6:50 AM CST 5:57 PM CST
Nautical Twilight 6:19 AM CST 6:28 PM CST
Astronomical Twilight 5:49 AM CST 6:58 PM CST
Moon 6:35 AM CST (1/22) 5:11 PM CST (1/22)
Length of Visible Light 11h 06m
Length of Day
10h 11m
Waning Crescent, 0% of the Moon is Illuminated
Jan 22
Waning Crescent
Jan 23
New
Jan 30
First Quarter
Feb 7
Full
Feb 14
Last Quarter

Hourly Weather History & Observations

Time (CST) Temp. Windchill Dew Point Humidity Pressure Visibility Wind Dir Wind Speed Gust Speed Precip Events Conditions
12:16 AM 35.6 °F 30.7 °F 30.2 °F 81% 29.98 in 7.0 mi East 5.8 mph - N/A   Overcast
12:53 AM 34.0 °F 27.2 °F 30.0 °F 85% 29.97 in 6.0 mi East 8.1 mph - N/A   Overcast
1:53 AM 35.1 °F 30.1 °F 30.0 °F 82% 29.95 in 6.0 mi Variable 5.8 mph - N/A   Haze
2:53 AM 34.0 °F 28.0 °F 30.9 °F 89% 29.94 in 5.0 mi ESE 6.9 mph - N/A   Overcast
3:11 AM 33.8 °F 28.6 °F 30.2 °F 87% 29.93 in 4.0 mi Variable 5.8 mph - N/A   Overcast
3:31 AM 33.8 °F 30.8 °F 32.0 °F 93% 29.93 in 2.5 mi East 3.5 mph - N/A   Overcast
3:53 AM 34.0 °F 28.0 °F 32.0 °F 92% 29.91 in 2.5 mi Variable 6.9 mph - N/A   Overcast
4:12 AM 33.8 °F 27.0 °F 32.0 °F 93% 29.90 in 2.5 mi East 8.1 mph - N/A   Overcast
4:53 AM 34.0 °F 29.8 °F 32.0 °F 92% 29.90 in 2.0 mi East 4.6 mph - N/A   Overcast
5:07 AM 33.8 °F 30.8 °F 32.0 °F 93% 29.90 in 1.8 mi East 3.5 mph - N/A   Overcast
5:53 AM 34.0 °F 29.8 °F 32.0 °F 92% 29.89 in 1.2 mi Variable 4.6 mph - N/A   Overcast
6:53 AM 34.0 °F 28.8 °F 33.1 °F 96% 29.88 in 1.2 mi East 5.8 mph - N/A   Overcast
7:53 AM 34.0 °F 28.8 °F 33.1 °F 96% 29.86 in 0.5 mi Variable 5.8 mph - N/A Fog Fog
8:53 AM 35.1 °F 30.1 °F 34.0 °F 96% 29.84 in 0.8 mi Variable 5.8 mph - N/A   Overcast
9:10 AM 35.6 °F 30.7 °F 33.8 °F 93% 29.84 in 1.0 mi Variable 5.8 mph - N/A   Overcast
10:33 AM 37.4 °F 33.8 °F 35.6 °F 93% 29.84 in 0.8 mi Variable 4.6 mph - N/A   Overcast
10:53 AM 37.0 °F 34.5 °F 36.0 °F 96% 29.81 in 0.8 mi Variable 3.5 mph - N/A   Overcast
11:42 AM 37.4 °F 33.8 °F 37.4 °F 100% 29.77 in 1.0 mi Variable 4.6 mph - N/A   Overcast
11:53 AM 37.9 °F 35.5 °F 37.0 °F 97% 29.75 in 1.0 mi East 3.5 mph - N/A   Overcast
12:51 PM 41.0 °F 39.0 °F 39.2 °F 93% 29.70 in 0.8 mi ESE 3.5 mph - N/A   Overcast
12:53 PM 41.0 °F 39.0 °F 39.9 °F 96% 29.70 in 0.8 mi ESE 3.5 mph - N/A   Overcast
1:53 PM 42.1 °F 39.2 °F 41.0 °F 96% 29.64 in 0.8 mi ESE 4.6 mph - N/A   Overcast
3:02 PM 44.6 °F 43.1 °F 44.6 °F 100% 29.63 in 1.2 mi North 3.5 mph - N/A   Overcast
3:48 PM 44.6 °F - 44.6 °F 100% 29.64 in 1.2 mi Calm Calm - N/A   Overcast
3:53 PM 45.0 °F 43.5 °F 44.1 °F 97% 29.63 in 1.2 mi West 3.5 mph - N/A   Overcast
4:50 PM 46.4 °F - 44.6 °F 93% 29.63 in 1.5 mi Calm Calm - N/A   Overcast
4:53 PM 46.9 °F - 45.0 °F 93% 29.63 in 1.5 mi South 3.5 mph - 0.00 in Rain Light Rain
5:33 PM 50.0 °F - 48.2 °F 94% 29.61 in 2.5 mi Calm Calm - 0.02 in   Overcast
5:39 PM 50.0 °F - 48.2 °F 94% 29.62 in 3.0 mi Calm Calm - 0.02 in Thunderstorm Overcast
6:03 PM 50.0 °F - 50.0 °F 100% 29.61 in 4.0 mi Variable 3.5 mph - N/A Thunderstorm Overcast
6:18 PM 50.0 °F - 48.2 °F 94% 29.60 in 3.0 mi Variable 5.8 mph - N/A   Overcast
6:33 PM 51.8 °F - 50.0 °F 94% 29.58 in 6.0 mi Variable 4.6 mph 17.3 mph 0.00 in Rain Light Rain
6:53 PM 53.1 °F - 48.9 °F 86% 29.56 in 10.0 mi Calm Calm - 0.00 in   Mostly Cloudy
7:53 PM 51.1 °F - 48.0 °F 89% 29.57 in 9.0 mi Calm Calm - N/A   Clear
8:43 PM 44.6 °F - 44.6 °F 100% 29.58 in 1.8 mi Calm Calm - N/A   Clear
8:53 PM 46.0 °F - 44.1 °F 93% 29.58 in 1.0 mi Calm Calm - N/A   Scattered Clouds
9:01 PM 46.4 °F 45.2 °F 44.6 °F 93% 29.59 in 3.0 mi East 3.5 mph - N/A   Mostly Cloudy
9:19 PM 46.4 °F - 44.6 °F 93% 29.59 in 2.0 mi Calm Calm - N/A   Overcast
9:51 PM 46.4 °F - 46.4 °F 100% 29.60 in 1.8 mi Calm Calm - N/A   Overcast
9:53 PM 48.0 °F - 46.0 °F 93% 29.59 in 2.0 mi Calm Calm - N/A   Overcast
10:01 PM 46.4 °F 45.2 °F 46.4 °F 100% 29.60 in 4.0 mi ENE 3.5 mph - N/A   Overcast
10:11 PM 48.2 °F - 46.4 °F 93% 29.60 in 2.5 mi Calm Calm - N/A   Overcast
10:18 PM 46.4 °F - 44.6 °F 93% 29.60 in 4.0 mi Calm Calm - N/A   Overcast
10:53 PM 63.0 °F - 39.0 °F 41% 29.62 in 6.0 mi West 9.2 mph 19.6 mph N/A   Haze
11:53 PM 57.0 °F - 39.0 °F 51% 29.69 in 10.0 mi WNW 17.3 mph 29.9 mph N/A   Clear